NOZ6JS ENGM-LIRP

Flight info

Callsign NOZ6JS
Flight time 2h 31m
Altitude 36000
Route VIPPA DCT ARTOR DCT AMRAK/N0437F360 DCT BOMBI DCT GIGET DCT ABUKA DCT KRH DCT NATOR/N0438F350 DCT TRA DCT RIPUS DCT GERSA DCT SOSON DCT ODINA DCT SRN DCT OSBUL DCT EKPAL DCT MIVKI
Aircraft B738/M-SADE3GHIJ1LRWXY/LB1

Departure

Time 2026-04-30 07:50
Airport Oslo-Gardermoen International Airport (ENGM)

Arrival

Time 2026-04-30 10:22
Airport Pisa International Airport (LIRP)
Time Latitude Longitude Altitude Speed Heading
2026-04-30 07:25 60.19720 11.10009 678 ft 0 kts 106°
2026-04-30 07:41 60.19725 11.09979 681 ft 2 kts 106°
2026-04-30 07:41 60.19729 11.09948 681 ft 2 kts 106°
2026-04-30 07:42 60.19734 11.09916 679 ft 2 kts 107°
2026-04-30 07:42 60.19735 11.09907 678 ft 0 kts 107°
2026-04-30 07:43 60.19736 11.09914 679 ft 1 kts 81°
2026-04-30 07:44 60.19747 11.09904 678 ft 4 kts 316°
2026-04-30 07:44 60.19792 11.09833 680 ft 11 kts 338°
2026-04-30 07:44 60.19865 11.09857 681 ft 11 kts 16°
2026-04-30 07:44 60.19942 11.09902 677 ft 13 kts 16°
2026-04-30 07:45 60.19966 11.10054 678 ft 13 kts 106°
2026-04-30 07:45 60.19941 11.10229 683 ft 13 kts 106°
2026-04-30 07:45 60.19917 11.10397 682 ft 13 kts 106°
2026-04-30 07:45 60.19893 11.10563 680 ft 12 kts 106°
2026-04-30 07:46 60.19868 11.10734 683 ft 14 kts 106°
2026-04-30 07:46 60.19835 11.10966 678 ft 20 kts 105°
2026-04-30 07:46 60.19797 11.11236 683 ft 19 kts 106°
2026-04-30 07:46 60.19767 11.11414 683 ft 11 kts 105°
2026-04-30 07:47 60.19811 11.11509 679 ft 10 kts 17°
2026-04-30 07:47 60.19881 11.11546 685 ft 10 kts 15°
2026-04-30 07:47 60.19947 11.11585 683 ft 10 kts 16°
2026-04-30 07:47 60.20012 11.11623 688 ft 10 kts 16°
2026-04-30 07:48 60.20074 11.11665 685 ft 9 kts 28°
2026-04-30 07:48 60.20084 11.11782 684 ft 9 kts 105°
2026-04-30 07:48 60.20065 11.11908 685 ft 10 kts 106°
2026-04-30 07:48 60.20047 11.12038 687 ft 10 kts 106°
2026-04-30 07:49 60.20029 11.12160 685 ft 6 kts 106°
2026-04-30 07:49 60.20014 11.12184 684 ft 3 kts 182°
2026-04-30 07:49 60.19977 11.12165 683 ft 21 kts 194°
2026-04-30 07:49 60.19587 11.11942 686 ft 94 kts 196°
2026-04-30 07:50 60.18766 11.11468 681 ft 153 kts 197°
2026-04-30 07:50 60.17665 11.10809 1144 ft 169 kts 196°
2026-04-30 07:50 60.16523 11.10152 1909 ft 172 kts 195°
2026-04-30 07:50 60.15357 11.09498 2662 ft 181 kts 197°
2026-04-30 07:51 60.14034 11.08760 2974 ft 212 kts 196°
2026-04-30 07:51 60.12503 11.08031 3213 ft 242 kts 189°
2026-04-30 07:51 60.10749 11.07640 3716 ft 260 kts 186°
2026-04-30 07:51 60.08930 11.07282 4573 ft 264 kts 187°
2026-04-30 07:52 60.07088 11.06906 5465 ft 268 kts 187°
2026-04-30 07:52 60.05231 11.06382 6300 ft 272 kts 196°
2026-04-30 07:52 60.03450 11.05202 7101 ft 275 kts 203°
2026-04-30 07:52 60.01659 11.03766 7887 ft 280 kts 205°
2026-04-30 07:53 59.99844 11.02271 8664 ft 285 kts 205°
2026-04-30 07:53 59.97984 11.00756 9406 ft 292 kts 205°
2026-04-30 07:53 59.96090 10.99235 10205 ft 296 kts 205°
2026-04-30 07:53 59.94151 10.97694 10818 ft 307 kts 205°
2026-04-30 07:54 59.92083 10.96060 10999 ft 332 kts 204°
2026-04-30 07:54 59.89866 10.94325 11339 ft 350 kts 204°
2026-04-30 07:54 59.87569 10.92542 11940 ft 358 kts 204°
2026-04-30 07:54 59.85263 10.90765 12638 ft 362 kts 203°
2026-04-30 07:55 59.82895 10.88948 13358 ft 367 kts 203°
2026-04-30 07:55 59.80496 10.87111 14061 ft 372 kts 203°
2026-04-30 07:55 59.78061 10.85249 14680 ft 377 kts 203°
2026-04-30 07:55 59.75600 10.83371 15354 ft 380 kts 203°
2026-04-30 07:56 59.73124 10.81484 16039 ft 383 kts 203°
2026-04-30 07:56 59.70622 10.79580 16672 ft 387 kts 203°
2026-04-30 07:56 59.68094 10.77659 17314 ft 391 kts 203°
2026-04-30 07:56 59.65540 10.75720 17932 ft 396 kts 203°
2026-04-30 07:57 59.62992 10.73791 18556 ft 399 kts 203°
2026-04-30 07:57 59.60387 10.71821 19142 ft 402 kts 203°
2026-04-30 07:57 59.57768 10.69843 19724 ft 404 kts 203°
2026-04-30 07:57 59.55129 10.67855 20307 ft 407 kts 203°
2026-04-30 07:58 59.52478 10.65859 20869 ft 410 kts 203°
2026-04-30 07:58 59.49806 10.63851 21426 ft 412 kts 203°
2026-04-30 07:58 59.47116 10.61834 21965 ft 415 kts 203°
2026-04-30 07:58 59.44446 10.59834 22483 ft 418 kts 203°
2026-04-30 07:59 59.41722 10.57798 23009 ft 421 kts 203°
2026-04-30 07:59 59.38976 10.55748 23528 ft 423 kts 203°
2026-04-30 07:59 59.36213 10.53691 24033 ft 426 kts 203°
2026-04-30 08:00 59.30636 10.49548 24878 ft 431 kts 203°
2026-04-30 08:00 59.27827 10.47466 25353 ft 433 kts 203°
2026-04-30 08:00 59.25002 10.45376 25756 ft 435 kts 203°
2026-04-30 08:00 59.22160 10.43278 26155 ft 438 kts 203°
2026-04-30 08:01 59.19340 10.41200 26555 ft 440 kts 203°
2026-04-30 08:01 59.16472 10.39090 26931 ft 442 kts 202°
2026-04-30 08:01 59.13588 10.36972 27300 ft 444 kts 202°
2026-04-30 08:01 59.10684 10.34842 27666 ft 447 kts 202°
2026-04-30 08:02 59.04840 10.30569 28368 ft 451 kts 202°
2026-04-30 08:02 59.01894 10.28420 28718 ft 453 kts 202°
2026-04-30 08:03 58.95958 10.24135 29401 ft 458 kts 200°
2026-04-30 08:03 58.89691 10.22024 30022 ft 465 kts 185°
2026-04-30 08:03 58.86458 10.21656 30346 ft 467 kts 184°
2026-04-30 08:04 58.83206 10.21307 30615 ft 469 kts 184°
2026-04-30 08:04 58.79945 10.20940 30867 ft 470 kts 184°
2026-04-30 08:04 58.76680 10.20547 31215 ft 469 kts 185°
2026-04-30 08:04 58.73428 10.20136 31638 ft 466 kts 185°
2026-04-30 08:05 58.70198 10.19715 32049 ft 464 kts 185°
2026-04-30 08:05 58.66984 10.19290 32394 ft 463 kts 185°
2026-04-30 08:05 58.63769 10.18863 32707 ft 463 kts 185°
2026-04-30 08:05 58.60598 10.18444 33000 ft 463 kts 185°
2026-04-30 08:06 58.57380 10.18020 33274 ft 464 kts 185°
2026-04-30 08:06 58.54165 10.17599 33617 ft 462 kts 185°
2026-04-30 08:06 58.50966 10.17181 33995 ft 460 kts 185°
2026-04-30 08:06 58.47777 10.16766 34333 ft 459 kts 185°
2026-04-30 08:07 58.44595 10.16352 34597 ft 459 kts 185°
2026-04-30 08:07 58.41408 10.15938 34844 ft 458 kts 185°
2026-04-30 08:07 58.38233 10.15526 35089 ft 458 kts 185°
2026-04-30 08:07 58.35098 10.15120 35334 ft 457 kts 185°
2026-04-30 08:08 58.31924 10.14712 35569 ft 457 kts 184°
2026-04-30 08:08 58.28751 10.14313 35784 ft 457 kts 184°
2026-04-30 08:08 58.25579 10.13921 36017 ft 457 kts 184°
2026-04-30 08:08 58.22413 10.13532 36262 ft 456 kts 184°
2026-04-30 08:09 58.19248 10.13143 36435 ft 457 kts 184°
2026-04-30 08:09 58.12868 10.12359 36437 ft 460 kts 184°
2026-04-30 08:10 58.06543 10.11583 36427 ft 456 kts 184°
2026-04-30 08:10 58.00232 10.10811 36441 ft 453 kts 184°
2026-04-30 08:11 57.93950 10.10044 36444 ft 452 kts 184°
2026-04-30 08:11 57.87682 10.09281 36443 ft 451 kts 184°
2026-04-30 08:12 57.81451 10.08526 36453 ft 452 kts 184°
2026-04-30 08:12 57.75170 10.07768 36443 ft 453 kts 184°
2026-04-30 08:13 57.68870 10.07010 36463 ft 455 kts 184°
2026-04-30 08:13 57.62539 10.06250 36469 ft 457 kts 184°
2026-04-30 08:14 57.56181 10.05491 36459 ft 459 kts 184°
2026-04-30 08:14 57.49832 10.04735 36463 ft 461 kts 184°
2026-04-30 08:15 57.43430 10.03976 36455 ft 461 kts 184°
2026-04-30 08:15 57.37024 10.03218 36474 ft 461 kts 184°
2026-04-30 08:16 57.30624 10.02465 36472 ft 460 kts 184°
2026-04-30 08:16 57.24285 10.01720 36469 ft 459 kts 184°
2026-04-30 08:17 57.17926 10.00976 36480 ft 457 kts 184°
2026-04-30 08:17 57.11584 10.00237 36484 ft 456 kts 184°
2026-04-30 08:18 57.05264 9.99502 36477 ft 454 kts 184°
2026-04-30 08:18 56.98959 9.98772 36483 ft 454 kts 184°
2026-04-30 08:19 56.92711 9.98051 36471 ft 453 kts 184°
2026-04-30 08:19 56.86419 9.97327 36476 ft 453 kts 184°
2026-04-30 08:20 56.80132 9.96606 36488 ft 453 kts 184°
2026-04-30 08:20 56.73828 9.95885 36493 ft 455 kts 184°
2026-04-30 08:21 56.67545 9.95170 36482 ft 456 kts 184°
2026-04-30 08:21 56.61201 9.94450 36496 ft 458 kts 184°
2026-04-30 08:22 56.54825 9.93729 36494 ft 460 kts 184°
2026-04-30 08:22 56.49512 9.93130 36498 ft 461 kts 183°
2026-04-30 08:23 56.43099 9.92409 36484 ft 462 kts 183°
2026-04-30 08:23 56.35631 9.91572 36494 ft 463 kts 183°
2026-04-30 08:24 56.29204 9.90855 36496 ft 463 kts 183°
2026-04-30 08:24 56.23862 9.90261 36484 ft 462 kts 183°
2026-04-30 08:25 56.17448 9.89549 36495 ft 461 kts 183°
2026-04-30 08:25 56.10009 9.88727 36499 ft 460 kts 183°
2026-04-30 08:26 56.04658 9.88137 36495 ft 460 kts 183°
2026-04-30 08:26 55.98318 9.87441 36497 ft 459 kts 183°
2026-04-30 08:27 55.91952 9.86744 36498 ft 458 kts 183°
2026-04-30 08:27 55.85589 9.86050 36503 ft 458 kts 182°
2026-04-30 08:28 55.79226 9.85358 36501 ft 458 kts 182°
2026-04-30 08:28 55.72902 9.84673 36503 ft 458 kts 182°
2026-04-30 08:29 55.66527 9.83984 36508 ft 459 kts 182°
2026-04-30 08:29 55.60148 9.83297 36512 ft 460 kts 182°
2026-04-30 08:30 55.53756 9.82612 36515 ft 460 kts 182°
2026-04-30 08:30 55.47399 9.81931 36518 ft 461 kts 182°
2026-04-30 08:31 55.40989 9.81248 36513 ft 462 kts 182°
2026-04-30 08:31 55.34575 9.80566 36522 ft 462 kts 182°
2026-04-30 08:32 55.28150 9.79885 36524 ft 463 kts 182°
2026-04-30 08:32 55.21722 9.79206 36529 ft 463 kts 182°
2026-04-30 08:33 55.15333 9.78534 36534 ft 463 kts 182°
2026-04-30 08:33 55.08900 9.77859 36535 ft 463 kts 182°
2026-04-30 08:34 55.02469 9.77186 36538 ft 463 kts 182°
2026-04-30 08:34 54.96035 9.76515 36538 ft 463 kts 182°
2026-04-30 08:35 54.89651 9.75851 36543 ft 463 kts 182°
2026-04-30 08:35 54.83219 9.75185 36526 ft 463 kts 182°
2026-04-30 08:36 54.76802 9.74041 36538 ft 463 kts 186°
2026-04-30 08:36 54.70411 9.72548 36532 ft 464 kts 187°
2026-04-30 08:37 54.64018 9.71055 36535 ft 463 kts 186°
2026-04-30 08:37 54.57672 9.69626 36532 ft 463 kts 186°
2026-04-30 08:38 54.51271 9.68216 36534 ft 463 kts 186°
2026-04-30 08:38 54.44877 9.66819 36563 ft 463 kts 186°
2026-04-30 08:39 54.38470 9.65422 36540 ft 464 kts 186°
2026-04-30 08:39 54.32095 9.64036 36538 ft 465 kts 186°
2026-04-30 08:40 54.25677 9.62643 36535 ft 465 kts 186°
2026-04-30 08:40 54.19253 9.61254 36537 ft 465 kts 186°
2026-04-30 08:41 54.12826 9.59868 36528 ft 466 kts 186°
2026-04-30 08:41 54.06392 9.58485 36527 ft 466 kts 185°
2026-04-30 08:42 53.99995 9.57114 36526 ft 466 kts 185°
2026-04-30 08:42 53.93556 9.55739 36527 ft 466 kts 185°
2026-04-30 08:43 53.87116 9.54368 36524 ft 466 kts 185°
2026-04-30 08:43 53.80680 9.53001 36530 ft 466 kts 185°
2026-04-30 08:44 53.74246 9.51640 36530 ft 466 kts 185°
2026-04-30 08:44 53.67863 9.50293 36533 ft 465 kts 185°
2026-04-30 08:45 53.61435 9.48941 36535 ft 465 kts 185°
2026-04-30 08:45 53.55010 9.47594 36532 ft 465 kts 185°
2026-04-30 08:46 53.48585 9.46251 36531 ft 465 kts 185°
2026-04-30 08:46 53.42208 9.44922 36526 ft 465 kts 185°
2026-04-30 08:47 53.35790 9.43589 36525 ft 465 kts 185°
2026-04-30 08:47 53.29369 9.42259 36523 ft 465 kts 185°
2026-04-30 08:48 53.22949 9.40933 36525 ft 465 kts 185°
2026-04-30 08:48 53.16568 9.39619 36524 ft 465 kts 185°
2026-04-30 08:49 53.10142 9.38300 36523 ft 465 kts 185°
2026-04-30 08:49 53.03715 9.36985 36523 ft 465 kts 185°
2026-04-30 08:50 52.97285 9.35673 36518 ft 466 kts 185°
2026-04-30 08:50 52.90852 9.34364 36517 ft 466 kts 185°
2026-04-30 08:51 52.84464 9.33069 36513 ft 466 kts 185°
2026-04-30 08:51 52.78025 9.31766 36511 ft 466 kts 185°
2026-04-30 08:52 52.71592 9.30469 36515 ft 466 kts 185°
2026-04-30 08:52 52.65159 9.29176 36509 ft 466 kts 185°
2026-04-30 08:53 52.58769 9.27896 36509 ft 466 kts 184°
2026-04-30 08:53 52.52335 9.26610 36506 ft 465 kts 184°
2026-04-30 08:54 52.45910 9.25329 36502 ft 465 kts 184°
2026-04-30 08:54 52.39485 9.24053 36514 ft 465 kts 184°
2026-04-30 08:55 52.33061 9.22781 36509 ft 465 kts 184°
2026-04-30 08:55 52.26683 9.21521 36513 ft 465 kts 184°
2026-04-30 08:56 52.20263 9.20256 36512 ft 465 kts 184°
2026-04-30 08:56 52.13837 9.18995 36509 ft 465 kts 184°
2026-04-30 08:57 52.07413 9.17737 36502 ft 465 kts 184°
2026-04-30 08:57 52.01026 9.16490 36498 ft 465 kts 184°
2026-04-30 08:58 51.94596 9.15239 36490 ft 465 kts 184°
2026-04-30 08:58 51.88177 9.13992 36499 ft 464 kts 184°
2026-04-30 08:59 51.81756 9.12750 36486 ft 465 kts 184°
2026-04-30 08:59 51.75336 9.11511 36494 ft 465 kts 184°
2026-04-30 09:00 51.68961 9.10284 36495 ft 465 kts 184°
2026-04-30 09:00 51.62536 9.09051 36486 ft 465 kts 184°
2026-04-30 09:01 51.56113 9.07822 36490 ft 465 kts 184°
2026-04-30 09:01 51.49689 9.06596 36485 ft 465 kts 184°
2026-04-30 09:02 51.40092 9.04772 36483 ft 465 kts 184°
2026-04-30 09:02 51.33668 9.03555 36477 ft 465 kts 184°
2026-04-30 09:03 51.27238 9.02340 36480 ft 465 kts 184°
2026-04-30 09:03 51.20810 9.01129 36483 ft 465 kts 184°
2026-04-30 09:04 51.14385 8.99922 36481 ft 465 kts 184°
2026-04-30 09:04 51.08000 8.98726 36474 ft 465 kts 184°
2026-04-30 09:05 51.01571 8.97525 36471 ft 465 kts 184°
2026-04-30 09:05 50.95147 8.96327 36477 ft 465 kts 183°
2026-04-30 09:06 50.88723 8.95134 36467 ft 465 kts 183°
2026-04-30 09:06 50.82346 8.93953 36461 ft 464 kts 183°
2026-04-30 09:07 50.75928 8.92767 36465 ft 464 kts 183°
2026-04-30 09:07 50.69507 8.91584 36460 ft 465 kts 183°
2026-04-30 09:08 50.63084 8.90404 36459 ft 464 kts 183°
2026-04-30 09:08 50.56705 8.89235 36452 ft 465 kts 183°
2026-04-30 09:09 50.50285 8.88062 36459 ft 465 kts 183°
2026-04-30 09:09 50.43860 8.86891 36448 ft 465 kts 183°
2026-04-30 09:10 50.37427 8.85722 36456 ft 465 kts 183°
2026-04-30 09:10 50.31042 8.84564 36455 ft 465 kts 183°
2026-04-30 09:11 50.24611 8.83402 36443 ft 465 kts 183°
2026-04-30 09:11 50.18177 8.82242 36435 ft 465 kts 183°
2026-04-30 09:12 50.11747 8.81085 36431 ft 465 kts 183°
2026-04-30 09:12 50.05366 8.79940 36443 ft 465 kts 183°
2026-04-30 09:13 49.98952 8.78655 36425 ft 465 kts 184°
2026-04-30 09:13 49.92544 8.77304 36425 ft 465 kts 184°
2026-04-30 09:14 49.86136 8.75975 36423 ft 464 kts 184°
2026-04-30 09:14 49.79742 8.74666 36409 ft 463 kts 184°
2026-04-30 09:15 49.73402 8.73373 36403 ft 462 kts 184°
2026-04-30 09:15 49.67029 8.72074 36393 ft 461 kts 184°
2026-04-30 09:16 49.60668 8.70778 36402 ft 461 kts 184°
2026-04-30 09:16 49.54318 8.69486 36395 ft 460 kts 184°
2026-04-30 09:17 49.48021 8.68208 36402 ft 459 kts 184°
2026-04-30 09:17 49.41687 8.66925 36409 ft 459 kts 184°
2026-04-30 09:18 49.35362 8.65644 36391 ft 458 kts 184°
2026-04-30 09:18 49.29044 8.64367 36385 ft 458 kts 184°
2026-04-30 09:19 49.22730 8.63095 36375 ft 458 kts 184°
2026-04-30 09:19 49.16461 8.61834 36352 ft 458 kts 184°
2026-04-30 09:20 49.10144 8.60568 36329 ft 458 kts 184°
2026-04-30 09:20 49.03827 8.59304 36335 ft 458 kts 184°
2026-04-30 09:21 48.97512 8.57924 36325 ft 460 kts 187°
2026-04-30 09:21 48.91285 8.55935 36319 ft 461 kts 189°
2026-04-30 09:22 48.85020 8.53821 36310 ft 461 kts 189°
2026-04-30 09:22 48.78753 8.51756 36310 ft 461 kts 189°
2026-04-30 09:23 48.72475 8.49730 36306 ft 461 kts 189°
2026-04-30 09:23 48.66201 8.47719 36298 ft 461 kts 189°
2026-04-30 09:24 48.59979 8.45728 36294 ft 460 kts 189°
2026-04-30 09:24 48.53715 8.43728 36298 ft 460 kts 189°
2026-04-30 09:25 48.47461 8.41735 36287 ft 459 kts 189°
2026-04-30 09:25 48.41211 8.39749 36287 ft 459 kts 189°
2026-04-30 09:26 48.35004 8.37781 36281 ft 458 kts 189°
2026-04-30 09:26 48.28770 8.35810 36284 ft 458 kts 189°
2026-04-30 09:27 48.22540 8.33844 36273 ft 457 kts 189°
2026-04-30 09:27 48.16270 8.32512 36272 ft 453 kts 177°
2026-04-30 09:28 48.10106 8.33603 36274 ft 448 kts 167°
2026-04-30 09:28 48.03954 8.35212 36266 ft 449 kts 167°
2026-04-30 09:29 47.97791 8.36763 36255 ft 450 kts 167°
2026-04-30 09:29 47.91608 8.38267 36261 ft 450 kts 168°
2026-04-30 09:30 47.85452 8.39749 36260 ft 452 kts 168°
2026-04-30 09:30 47.79234 8.41245 36254 ft 453 kts 168°
2026-04-30 09:31 47.72994 8.42743 36267 ft 455 kts 168°
2026-04-30 09:31 47.66716 8.44145 36270 ft 457 kts 171°
2026-04-30 09:32 47.60372 8.45075 36271 ft 459 kts 173°
2026-04-30 09:32 47.54009 8.45929 36266 ft 459 kts 173°
2026-04-30 09:33 47.47688 8.46830 36260 ft 459 kts 173°
2026-04-30 09:33 47.41334 8.47760 36266 ft 458 kts 173°
2026-04-30 09:34 47.34995 8.48689 36267 ft 457 kts 173°
2026-04-30 09:34 47.28666 8.49612 36258 ft 456 kts 173°
2026-04-30 09:35 47.22394 8.50523 36252 ft 456 kts 173°
2026-04-30 09:35 47.16091 8.51437 36252 ft 455 kts 173°
2026-04-30 09:36 47.09800 8.52347 36220 ft 454 kts 173°
2026-04-30 09:36 47.03520 8.53254 36220 ft 454 kts 173°
2026-04-30 09:37 46.97267 8.54157 36217 ft 455 kts 173°
2026-04-30 09:37 46.90961 8.55066 36214 ft 457 kts 173°
2026-04-30 09:38 46.84624 8.55977 36224 ft 459 kts 173°
2026-04-30 09:38 46.78259 8.56891 36255 ft 461 kts 173°
2026-04-30 09:39 46.71909 8.57800 36257 ft 463 kts 173°
2026-04-30 09:39 46.65481 8.58718 36235 ft 465 kts 173°
2026-04-30 09:40 46.59038 8.59636 36270 ft 465 kts 174°
2026-04-30 09:40 46.52592 8.60552 36265 ft 465 kts 174°
2026-04-30 09:41 46.46200 8.61458 36293 ft 464 kts 174°
2026-04-30 09:41 46.39770 8.62369 36299 ft 462 kts 174°
2026-04-30 09:42 46.33370 8.63273 36309 ft 462 kts 174°
2026-04-30 09:42 46.26974 8.64174 36322 ft 461 kts 174°
2026-04-30 09:43 46.20631 8.65066 36313 ft 461 kts 174°
2026-04-30 09:43 46.14254 8.65961 36313 ft 460 kts 174°
2026-04-30 09:44 46.08087 8.68237 36319 ft 458 kts 155°
2026-04-30 09:44 46.02492 8.72557 36310 ft 456 kts 150°
2026-04-30 09:45 45.96980 8.76988 36330 ft 457 kts 150°
2026-04-30 09:45 45.91392 8.81396 36326 ft 458 kts 150°
2026-04-30 09:46 45.85779 8.85774 36314 ft 460 kts 151°
2026-04-30 09:46 45.80153 8.90147 36308 ft 461 kts 152°
2026-04-30 09:47 45.74552 8.94495 36312 ft 462 kts 152°
2026-04-30 09:47 45.68896 8.98878 36315 ft 463 kts 152°
2026-04-30 09:48 45.63512 9.03885 36322 ft 463 kts 137°
2026-04-30 09:48 45.59114 9.10580 36285 ft 463 kts 131°
2026-04-30 09:49 45.54834 9.17466 36295 ft 464 kts 131°
2026-04-30 09:49 45.50542 9.24278 36296 ft 465 kts 131°
2026-04-30 09:50 45.46182 9.31115 36295 ft 467 kts 131°
2026-04-30 09:50 45.41803 9.37944 36200 ft 468 kts 132°
2026-04-30 09:51 45.39611 9.41354 35952 ft 466 kts 132°
2026-04-30 09:51 45.37460 9.44698 35618 ft 460 kts 132°
2026-04-30 09:51 45.35314 9.48032 35229 ft 456 kts 132°
2026-04-30 09:51 45.33180 9.51343 34862 ft 452 kts 132°
2026-04-30 09:52 45.31062 9.54625 34488 ft 449 kts 132°
2026-04-30 09:52 45.28957 9.57883 34086 ft 446 kts 132°
2026-04-30 09:52 45.26867 9.61116 33654 ft 443 kts 132°
2026-04-30 09:52 45.24787 9.64328 33239 ft 440 kts 132°
2026-04-30 09:53 45.22726 9.67507 32899 ft 436 kts 132°
2026-04-30 09:53 45.20677 9.70663 32508 ft 433 kts 132°
2026-04-30 09:53 45.18669 9.73754 32115 ft 430 kts 132°
2026-04-30 09:53 45.16648 9.76861 31738 ft 427 kts 132°
2026-04-30 09:54 45.14639 9.79944 31332 ft 425 kts 133°
2026-04-30 09:54 45.12639 9.83012 30974 ft 423 kts 133°
2026-04-30 09:54 45.10646 9.86066 30613 ft 421 kts 133°
2026-04-30 09:54 45.08666 9.89098 30232 ft 419 kts 133°
2026-04-30 09:55 45.06694 9.92113 29809 ft 416 kts 133°
2026-04-30 09:55 45.04736 9.95105 29407 ft 413 kts 133°
2026-04-30 09:55 45.02794 9.98067 29019 ft 409 kts 133°
2026-04-30 09:55 45.00890 10.00969 28663 ft 406 kts 132°
2026-04-30 09:56 44.98975 10.03884 28281 ft 403 kts 132°
2026-04-30 09:56 44.97072 10.06778 27923 ft 400 kts 132°
2026-04-30 09:56 44.95186 10.09644 27551 ft 397 kts 132°
2026-04-30 09:56 44.93310 10.12492 27174 ft 395 kts 132°
2026-04-30 09:57 44.91447 10.15317 26814 ft 392 kts 132°
2026-04-30 09:57 44.89595 10.18124 26465 ft 389 kts 132°
2026-04-30 09:57 44.87777 10.20876 26121 ft 387 kts 132°
2026-04-30 09:57 44.85946 10.23644 25764 ft 385 kts 132°
2026-04-30 09:58 44.84007 10.26211 25383 ft 384 kts 147°
2026-04-30 09:58 44.81579 10.27676 25042 ft 379 kts 169°
2026-04-30 09:58 44.78973 10.27965 24656 ft 374 kts 188°
2026-04-30 09:58 44.76447 10.27234 24333 ft 369 kts 197°
2026-04-30 09:59 44.71516 10.25271 23538 ft 367 kts 200°
2026-04-30 09:59 44.66632 10.23317 22781 ft 363 kts 199°
2026-04-30 10:00 44.61834 10.21453 22072 ft 358 kts 199°
2026-04-30 10:00 44.59443 10.20532 21710 ft 356 kts 199°
2026-04-30 10:01 44.54697 10.18712 21023 ft 351 kts 199°
2026-04-30 10:01 44.52344 10.17811 20681 ft 349 kts 198°
2026-04-30 10:01 44.50001 10.16915 20336 ft 348 kts 198°
2026-04-30 10:02 44.45338 10.15187 19670 ft 345 kts 197°
2026-04-30 10:02 44.43050 10.14382 19352 ft 343 kts 196°
2026-04-30 10:02 44.40741 10.13572 19032 ft 342 kts 196°
2026-04-30 10:02 44.38438 10.12762 18691 ft 341 kts 196°
2026-04-30 10:03 44.36136 10.11950 18321 ft 341 kts 196°
2026-04-30 10:03 44.33839 10.11139 17927 ft 340 kts 196°
2026-04-30 10:03 44.31560 10.10334 17608 ft 336 kts 196°
2026-04-30 10:03 44.29302 10.09536 17220 ft 335 kts 196°
2026-04-30 10:04 44.27051 10.08742 16894 ft 332 kts 196°
2026-04-30 10:04 44.24850 10.07966 16561 ft 330 kts 196°
2026-04-30 10:04 44.22580 10.07577 16210 ft 331 kts 177°
2026-04-30 10:04 44.20346 10.08225 15913 ft 329 kts 160°
2026-04-30 10:05 44.18233 10.09407 15602 ft 326 kts 157°
2026-04-30 10:05 44.16152 10.10657 15278 ft 325 kts 156°
2026-04-30 10:05 44.14079 10.11919 14959 ft 325 kts 156°
2026-04-30 10:05 44.12010 10.13172 14646 ft 324 kts 156°
2026-04-30 10:06 44.09943 10.14413 14333 ft 324 kts 157°
2026-04-30 10:06 44.07875 10.15644 14014 ft 324 kts 157°
2026-04-30 10:06 44.05825 10.16857 13658 ft 324 kts 157°
2026-04-30 10:06 44.03750 10.18081 13303 ft 323 kts 157°
2026-04-30 10:07 44.01683 10.19297 12975 ft 321 kts 157°
2026-04-30 10:07 43.99636 10.20501 12651 ft 318 kts 157°
2026-04-30 10:07 43.97600 10.21696 12326 ft 317 kts 157°
2026-04-30 10:07 43.95567 10.22887 12006 ft 316 kts 156°
2026-04-30 10:08 43.93545 10.24071 11696 ft 315 kts 156°
2026-04-30 10:08 43.91530 10.25250 11377 ft 314 kts 156°
2026-04-30 10:08 43.89528 10.26421 11066 ft 312 kts 156°
2026-04-30 10:08 43.87561 10.27569 10765 ft 310 kts 155°
2026-04-30 10:09 43.85572 10.28730 10447 ft 309 kts 155°
2026-04-30 10:09 43.83612 10.29874 10291 ft 302 kts 155°
2026-04-30 10:09 43.81696 10.30991 10098 ft 297 kts 155°
2026-04-30 10:09 43.79796 10.32098 9797 ft 295 kts 155°
2026-04-30 10:10 43.77908 10.33199 9506 ft 294 kts 155°
2026-04-30 10:10 43.76027 10.34294 9207 ft 293 kts 155°
2026-04-30 10:10 43.74157 10.35381 8899 ft 292 kts 154°
2026-04-30 10:10 43.72287 10.36467 8608 ft 291 kts 154°
2026-04-30 10:11 43.70400 10.37470 8293 ft 292 kts 164°
2026-04-30 10:11 43.68400 10.37450 7995 ft 295 kts 194°
2026-04-30 10:11 43.66627 10.36089 7718 ft 293 kts 224°
2026-04-30 10:11 43.65414 10.33864 7449 ft 290 kts 241°
2026-04-30 10:12 43.64434 10.31449 7168 ft 288 kts 243°
2026-04-30 10:12 43.63482 10.29018 6872 ft 287 kts 242°
2026-04-30 10:12 43.62526 10.26592 6570 ft 287 kts 242°
2026-04-30 10:12 43.61565 10.24184 6239 ft 287 kts 241°
2026-04-30 10:13 43.60583 10.21750 5869 ft 290 kts 240°
2026-04-30 10:13 43.59611 10.19359 5868 ft 275 kts 240°
2026-04-30 10:13 43.58708 10.17147 5739 ft 262 kts 240°
2026-04-30 10:13 43.57838 10.15019 5603 ft 249 kts 238°
2026-04-30 10:14 43.56739 10.13287 5460 ft 235 kts 211°
2026-04-30 10:14 43.55311 10.12434 5317 ft 218 kts 186°
2026-04-30 10:14 43.52529 10.12979 4841 ft 196 kts 146°
2026-04-30 10:15 43.51477 10.14110 4538 ft 187 kts 124°
2026-04-30 10:15 43.50811 10.15527 4440 ft 168 kts 108°
2026-04-30 10:15 43.50507 10.16999 4205 ft 160 kts 95°
2026-04-30 10:15 43.50514 10.18532 3954 ft 156 kts 80°
2026-04-30 10:16 43.50770 10.19958 3821 ft 152 kts 71°
2026-04-30 10:16 43.51199 10.21287 3735 ft 154 kts 60°
2026-04-30 10:16 43.51930 10.22399 3585 ft 158 kts 43°
2026-04-30 10:17 43.53703 10.24254 3170 ft 160 kts 43°
2026-04-30 10:17 43.55442 10.26070 2810 ft 153 kts 42°
2026-04-30 10:17 43.56271 10.26932 2667 ft 148 kts 42°
2026-04-30 10:18 43.57066 10.27752 2517 ft 139 kts 42°
2026-04-30 10:18 43.57829 10.28541 2340 ft 136 kts 41°
2026-04-30 10:18 43.58590 10.29329 2197 ft 143 kts 41°
2026-04-30 10:19 43.60172 10.30961 1781 ft 131 kts 40°
2026-04-30 10:19 43.60872 10.31685 1642 ft 126 kts 42°
2026-04-30 10:19 43.61570 10.32405 1475 ft 126 kts 41°
2026-04-30 10:19 43.62256 10.33114 1304 ft 123 kts 40°
2026-04-30 10:20 43.62933 10.33824 1165 ft 124 kts 40°
2026-04-30 10:20 43.64338 10.35266 849 ft 135 kts 42°
2026-04-30 10:20 43.65101 10.36052 633 ft 136 kts 40°
2026-04-30 10:21 43.65833 10.36799 458 ft 128 kts 42°
2026-04-30 10:21 43.66524 10.37516 309 ft 122 kts 50°
2026-04-30 10:21 43.67249 10.38250 119 ft 139 kts 44°
2026-04-30 10:21 43.67997 10.39038 13 ft 131 kts 38°
2026-04-30 10:22 43.68443 10.39494 13 ft 30 kts 38°
2026-04-30 10:22 43.68608 10.39666 11 ft 29 kts 36°
2026-04-30 10:22 43.68754 10.39814 9 ft 24 kts 37°
2026-04-30 10:22 43.68880 10.39945 9 ft 22 kts 36°
2026-04-30 10:23 43.69104 10.40186 11 ft 0 kts 38°
2026-04-30 10:23 43.69153 10.40228 9 ft 13 kts 35°
2026-04-30 10:23 43.69229 10.40299 9 ft 13 kts 22°
2026-04-30 10:23 43.69301 10.40255 11 ft 13 kts 306°
2026-04-30 10:24 43.69353 10.40159 17 ft 12 kts 306°
2026-04-30 10:24 43.69420 10.40098 18 ft 12 kts 352°
2026-04-30 10:24 43.69503 10.40082 15 ft 12 kts 352°
2026-04-30 10:24 43.69594 10.40064 14 ft 14 kts 351°
2026-04-30 10:25 43.69673 10.40058 13 ft 10 kts 27°
2026-04-30 10:25 43.69735 10.40087 13 ft 9 kts
2026-04-30 10:25 43.69759 10.40092 13 ft 0 kts